Location: Gisborne
(38.6530°S, 178.0040°E)
Time: 01:44:41
(UTC+13:00)

Resurs 01 Rocket - Pass Details

Date: 24 January 2019
Orbit: 635 x 643 km, 98.1° (Epoch: 19 February)

Event Time Altitude Azimuth Distance (km) Brightness Sun altitude
Rises 23:13:08 0° 184° (S) 2,978 6.0 -24.9°
Reaches altitude 10° 23:15:49 10° 200° (SSW) 2,058 5.2 -25.2°
Maximum altitude 23:19:05 20° 247° (WSW) 1,484 4.1 -25.6°
Drops below altitude 10° 23:22:19 10° 294° (WNW) 2,036 4.3 -25.9°
Enters shadow 23:23:17 - 301° (WNW) 2,340 4.5 -26.0°
